This is the latest recevied weather packets stored in our database for station/object KB9HUO. If no packets are shown the sender has not sent any weather packets the latest 10 day(s).
| Time | Temp. | Humidity | Pressure | Rain* | Wind** | Luminosity | Snow |
|---|---|---|---|---|---|---|---|
| 1777831374 | 16.67° C | 40% | 1018.8 hPa | 0 mm | - | 799 W/m² | - |
| 1777831070 | 16.67° C | 40% | 1019.1 hPa | 0 mm | - | 807 W/m² | - |
| 1777830768 | 16.67° C | 40% | 1019 hPa | 0 mm | - | 801 W/m² | - |
| 1777830464 | 16.67° C | 40% | 1019.2 hPa | 0 mm | - | 802 W/m² | - |
| 1777830162 | 16.11° C | 41% | 1019.3 hPa | 0 mm | - | 817 W/m² | - |
| 1777829862 | 16.67° C | 40% | 1019.4 hPa | 0 mm | - | 820 W/m² | - |
| 1777829558 | 16.67° C | 39% | 1019.6 hPa | 0 mm | - | 808 W/m² | - |
| 1777829255 | 16.67° C | 43% | 1019.7 hPa | 0 mm | - | 809 W/m² | - |
| 1777828952 | 16.11° C | 40% | 1019.4 hPa | 0 mm | - | 808 W/m² | - |
| 1777828649 | 16.11° C | 43% | 1019.5 hPa | 0 mm | - | 809 W/m² | - |
| 1777828346 | 16.11° C | 43% | 1019.4 hPa | 0 mm | - | 808 W/m² | - |
| 1777828043 | 16.11° C | 39% | 1019.5 hPa | 0 mm | - | 805 W/m² | - |
| 1777827740 | 16.11° C | 40% | 1019.7 hPa | 0 mm | - | 801 W/m² | - |
| 1777827437 | 16.67° C | 39% | 1019.7 hPa | 0 mm | - | 802 W/m² | - |
| 1777827134 | 16.11° C | 40% | 1019.8 hPa | 0 mm | - | 799 W/m² | - |
| 1777826830 | 16.11° C | 41% | 1020.2 hPa | 0 mm | - | 802 W/m² | - |
| 1777826528 | 16.11° C | 39% | 1020.1 hPa | 0 mm | - | 800 W/m² | - |
| 1777826224 | 15.56° C | 43% | 1020.1 hPa | 0 mm | - | 797 W/m² | - |
| 1777825922 | 15.56° C | 40% | 1020.1 hPa | 0 mm | - | 792 W/m² | - |
| 1777825618 | 15.56° C | 42% | 1020.2 hPa | 0 mm | - | 788 W/m² | - |
| 1777825317 | 15.56° C | 39% | 1020.3 hPa | 0 mm | - | 783 W/m² | - |
| 1777825013 | 15.56° C | 39% | 1020.6 hPa | 0 mm | - | 777 W/m² | - |
| 1777824709 | 15.56° C | 41% | 1020.5 hPa | 0 mm | - | 772 W/m² | - |
| 1777824406 | 15.56° C | 39% | 1020.5 hPa | 0 mm | - | 767 W/m² | - |
| 1777824102 | 15° C | 41% | 1020.4 hPa | 0 mm | - | 758 W/m² | - |
* Rain latest hour (hover to see other rain measurements)
** Current wind speed in m/s (hover to see current wind gust speed)